LOCATION_NAME,SAMPLE COLLECTION TIME,DOSE EQUIVALENT RATE (nSv/h),GAMMA COUNT RATE R02 (CPM),GAMMA COUNT RATE R03 (CPM),GAMMA COUNT RATE R04 (CPM),GAMMA COUNT RATE R05 (CPM),GAMMA COUNT RATE R06 (CPM),GAMMA COUNT RATE R07 (CPM),GAMMA COUNT RATE R08 (CPM),GAMMA COUNT RATE R09 (CPM),STATUS
WI: MADISON,01/06/2014 22:21:00,,1574.00,955.00,268.00,146.00,87.00,106.00,68.00,27.00,APPROVED
WI: MADISON,01/06/2014 23:21:00,,1579.00,968.00,271.00,148.00,90.00,104.00,68.00,28.00,APPROVED
WI: MADISON,01/07/2014 00:21:00,,1614.00,992.00,279.00,153.00,91.00,108.00,72.00,28.00,APPROVED
WI: MADISON,01/07/2014 01:21:00,,1608.00,992.00,277.00,155.00,91.00,110.00,72.00,30.00,APPROVED
WI: MADISON,01/07/2014 02:22:00,,1609.00,992.00,277.00,154.00,93.00,110.00,72.00,28.00,APPROVED
WI: MADISON,01/07/2014 03:22:00,,1623.00,990.00,280.00,152.00,93.00,109.00,69.00,28.00,APPROVED
WI: MADISON,01/07/2014 04:22:00,,1611.00,987.00,279.00,152.00,90.00,109.00,70.00,28.00,APPROVED
WI: MADISON,01/07/2014 05:22:00,,1616.00,986.00,276.00,154.00,91.00,109.00,72.00,29.00,APPROVED
WI: MADISON,01/07/2014 06:22:00,,1622.00,994.00,277.00,154.00,91.00,108.00,70.00,29.00,APPROVED
WI: MADISON,01/07/2014 07:23:00,,1618.00,1006.00,282.00,156.00,95.00,109.00,71.00,30.00,APPROVED
WI: MADISON,01/07/2014 08:23:00,,1636.00,1007.00,281.00,157.00,93.00,109.00,75.00,29.00,APPROVED
WI: MADISON,01/07/2014 09:23:00,,1646.00,1011.00,282.00,160.00,94.00,113.00,73.00,29.00,APPROVED
WI: MADISON,01/07/2014 10:23:00,,1649.00,1011.00,286.00,155.00,93.00,111.00,73.00,31.00,APPROVED
WI: MADISON,01/07/2014 11:23:00,,1657.00,1020.00,285.00,163.00,94.00,111.00,73.00,29.00,APPROVED
WI: MADISON,01/07/2014 12:24:00,,1666.00,1023.00,285.00,162.00,94.00,115.00,72.00,30.00,APPROVED
WI: MADISON,01/07/2014 13:24:00,,1653.00,1034.00,284.00,162.00,94.00,112.00,73.00,29.00,APPROVED
WI: MADISON,01/07/2014 14:24:00,,1641.00,1028.00,289.00,163.00,95.00,113.00,75.00,30.00,APPROVED
WI: MADISON,01/07/2014 15:24:00,,1638.00,1050.00,291.00,169.00,94.00,117.00,76.00,30.00,APPROVED
WI: MADISON,01/07/2014 16:24:00,,1646.00,1047.00,288.00,172.00,93.00,116.00,74.00,30.00,APPROVED
WI: MADISON,01/07/2014 17:25:00,,1643.00,1038.00,287.00,173.00,96.00,114.00,76.00,30.00,APPROVED
WI: MADISON,01/07/2014 18:02:00,,1608.00,1014.00,281.00,169.00,95.00,111.00,71.00,31.00,APPROVED
WI: MADISON,01/07/2014 19:09:00,,1565.00,923.00,252.00,139.00,83.00,99.00,65.00,28.00,APPROVED
WI: MADISON,01/07/2014 20:10:00,,1599.00,962.00,270.00,145.00,90.00,106.00,70.00,29.00,APPROVED
WI: MADISON,01/07/2014 21:10:00,,1599.00,974.00,266.00,151.00,89.00,106.00,70.00,29.00,APPROVED
WI: MADISON,01/07/2014 22:10:00,,1605.00,966.00,270.00,153.00,90.00,105.00,68.00,29.00,APPROVED
WI: MADISON,01/07/2014 23:10:00,,1625.00,987.00,272.00,153.00,92.00,108.00,72.00,29.00,APPROVED
WI: MADISON,01/08/2014 00:10:00,,1631.00,991.00,272.00,152.00,91.00,107.00,70.00,30.00,APPROVED
WI: MADISON,01/08/2014 01:11:00,,1641.00,1002.00,276.00,156.00,91.00,109.00,71.00,30.00,APPROVED
WI: MADISON,01/08/2014 02:11:00,,1668.00,1017.00,282.00,161.00,93.00,110.00,74.00,30.00,APPROVED
WI: MADISON,01/08/2014 03:11:00,,1679.00,1034.00,283.00,164.00,95.00,112.00,75.00,30.00,APPROVED
WI: MADISON,01/08/2014 04:11:00,,1674.00,1036.00,281.00,166.00,96.00,110.00,75.00,31.00,APPROVED
WI: MADISON,01/08/2014 05:11:00,,1677.00,1038.00,284.00,165.00,92.00,115.00,74.00,30.00,APPROVED
WI: MADISON,01/08/2014 06:12:00,,1672.00,1044.00,283.00,169.00,93.00,114.00,73.00,30.00,APPROVED
WI: MADISON,01/08/2014 07:12:00,,1680.00,1060.00,284.00,166.00,96.00,112.00,76.00,31.00,APPROVED
WI: MADISON,01/08/2014 08:12:00,,1695.00,1062.00,289.00,171.00,97.00,117.00,75.00,30.00,APPROVED
WI: MADISON,01/08/2014 09:12:00,,1706.00,1082.00,295.00,179.00,99.00,118.00,78.00,31.00,APPROVED
WI: MADISON,01/08/2014 10:12:00,,1712.00,1104.00,296.00,182.00,100.00,123.00,80.00,31.00,APPROVED
WI: MADISON,01/08/2014 11:13:00,,1721.00,1113.00,297.00,183.00,103.00,124.00,78.00,32.00,APPROVED
WI: MADISON,01/08/2014 12:13:00,,1717.00,1126.00,308.00,190.00,103.00,128.00,83.00,33.00,APPROVED
WI: MADISON,01/08/2014 13:13:00,,1732.00,1132.00,307.00,191.00,103.00,128.00,83.00,32.00,APPROVED
WI: MADISON,01/08/2014 14:13:00,,1742.00,1156.00,308.00,200.00,105.00,131.00,82.00,33.00,APPROVED
WI: MADISON,01/08/2014 15:13:00,,1732.00,1167.00,311.00,204.00,107.00,133.00,84.00,35.00,APPROVED
WI: MADISON,01/08/2014 16:14:00,,1730.00,1131.00,313.00,197.00,103.00,130.00,84.00,33.00,APPROVED
WI: MADISON,01/08/2014 17:14:00,,1669.00,1091.00,295.00,183.00,98.00,124.00,80.00,34.00,APPROVED
WI: MADISON,01/08/2014 18:14:00,,1607.00,998.00,278.00,164.00,94.00,110.00,74.00,30.00,APPROVED
WI: MADISON,01/08/2014 19:14:00,,1597.00,979.00,274.00,154.00,91.00,106.00,70.00,28.00,APPROVED
WI: MADISON,01/08/2014 20:14:00,,1617.00,989.00,277.00,158.00,91.00,106.00,71.00,28.00,APPROVED
WI: MADISON,01/08/2014 21:15:00,,1605.00,987.00,274.00,158.00,92.00,109.00,73.00,30.00,APPROVED
WI: MADISON,01/08/2014 22:15:00,,1630.00,994.00,277.00,156.00,92.00,110.00,75.00,29.00,APPROVED
WI: MADISON,01/08/2014 23:15:00,,1652.00,1024.00,287.00,163.00,95.00,113.00,75.00,30.00,APPROVED
WI: MADISON,01/09/2014 00:15:00,,1649.00,1018.00,283.00,162.00,93.00,111.00,73.00,29.00,APPROVED
WI: MADISON,01/09/2014 01:15:00,,1660.00,1024.00,286.00,162.00,96.00,112.00,72.00,31.00,APPROVED
WI: MADISON,01/09/2014 02:15:00,,1667.00,1040.00,284.00,166.00,95.00,113.00,73.00,31.00,APPROVED
WI: MADISON,01/09/2014 03:16:00,,1679.00,1062.00,287.00,173.00,96.00,116.00,79.00,30.00,APPROVED
WI: MADISON,01/09/2014 04:16:00,,1685.00,1070.00,290.00,180.00,100.00,117.00,77.00,33.00,APPROVED
WI: MADISON,01/09/2014 05:16:00,,1687.00,1105.00,297.00,186.00,101.00,124.00,79.00,33.00,APPROVED
WI: MADISON,01/09/2014 06:16:00,,1747.00,1156.00,312.00,195.00,105.00,128.00,80.00,33.00,APPROVED
WI: MADISON,01/09/2014 07:16:00,,1774.00,1225.00,328.00,215.00,109.00,137.00,86.00,37.00,APPROVED
WI: MADISON,01/09/2014 08:17:00,,1778.00,1225.00,332.00,222.00,114.00,143.00,89.00,35.00,APPROVED
WI: MADISON,01/09/2014 09:17:00,,1791.00,1238.00,331.00,227.00,115.00,144.00,89.00,37.00,APPROVED
WI: MADISON,01/09/2014 10:17:00,,1802.00,1268.00,340.00,232.00,118.00,149.00,92.00,36.00,APPROVED
WI: MADISON,01/09/2014 11:17:00,,1808.00,1278.00,345.00,234.00,116.00,149.00,91.00,37.00,APPROVED
WI: MADISON,01/09/2014 12:17:00,,1818.00,1306.00,356.00,242.00,119.00,158.00,96.00,37.00,APPROVED
WI: MADISON,01/09/2014 13:18:00,,1896.00,1425.00,386.00,273.00,128.00,173.00,103.00,39.00,APPROVED
WI: MADISON,01/09/2014 14:18:00,,1878.00,1425.00,382.00,280.00,134.00,177.00,105.00,41.00,APPROVED
WI: MADISON,01/09/2014 15:18:00,,1826.00,1356.00,367.00,270.00,128.00,169.00,100.00,40.00,APPROVED
WI: MADISON,01/09/2014 16:18:00,,1842.00,1334.00,353.00,254.00,124.00,159.00,97.00,40.00,APPROVED
WI: MADISON,01/09/2014 17:19:00,,1826.00,1255.00,343.00,235.00,117.00,148.00,90.00,35.00,APPROVED
WI: MADISON,01/09/2014 18:19:00,,1752.00,1149.00,325.00,202.00,106.00,137.00,83.00,34.00,APPROVED
WI: MADISON,01/09/2014 19:19:00,,1713.00,1108.00,316.00,190.00,102.00,129.00,81.00,33.00,APPROVED
WI: MADISON,01/09/2014 20:19:00,,1716.00,1104.00,310.00,186.00,104.00,126.00,80.00,31.00,APPROVED
WI: MADISON,01/09/2014 21:19:00,,1692.00,1090.00,306.00,184.00,99.00,127.00,79.00,32.00,APPROVED
WI: MADISON,01/09/2014 22:20:00,,1683.00,1062.00,304.00,178.00,101.00,122.00,76.00,31.00,APPROVED
WI: MADISON,01/09/2014 23:20:00,,1705.00,1076.00,302.00,175.00,98.00,122.00,78.00,30.00,APPROVED
WI: MADISON,01/10/2014 00:20:00,,1712.00,1085.00,308.00,178.00,100.00,122.00,77.00,31.00,APPROVED
WI: MADISON,01/10/2014 01:20:00,,1705.00,1089.00,308.00,184.00,100.00,125.00,78.00,31.00,APPROVED
WI: MADISON,01/10/2014 02:20:00,,1730.00,1098.00,311.00,180.00,105.00,123.00,79.00,31.00,APPROVED
WI: MADISON,01/10/2014 03:21:00,,1731.00,1106.00,314.00,184.00,101.00,125.00,78.00,33.00,APPROVED
WI: MADISON,01/10/2014 04:21:00,,1744.00,1123.00,319.00,195.00,104.00,131.00,81.00,32.00,APPROVED
WI: MADISON,01/10/2014 05:21:00,,1779.00,1170.00,333.00,205.00,108.00,139.00,86.00,32.00,APPROVED
WI: MADISON,01/10/2014 06:21:00,,1806.00,1227.00,343.00,216.00,114.00,142.00,89.00,34.00,APPROVED
WI: MADISON,01/10/2014 07:21:00,,1834.00,1265.00,358.00,228.00,115.00,152.00,91.00,34.00,APPROVED
WI: MADISON,01/10/2014 08:22:00,,1861.00,1317.00,378.00,242.00,123.00,161.00,99.00,36.00,APPROVED
WI: MADISON,01/10/2014 09:22:00,,1888.00,1346.00,380.00,251.00,126.00,167.00,98.00,36.00,APPROVED
WI: MADISON,01/10/2014 10:22:00,,1877.00,1351.00,385.00,251.00,130.00,167.00,101.00,36.00,APPROVED
WI: MADISON,01/10/2014 11:22:00,,1862.00,1322.00,382.00,247.00,124.00,165.00,100.00,36.00,APPROVED
WI: MADISON,01/10/2014 12:22:00,,1867.00,1338.00,384.00,248.00,126.00,170.00,99.00,38.00,APPROVED
WI: MADISON,01/10/2014 13:23:00,,1857.00,1351.00,392.00,253.00,126.00,171.00,101.00,37.00,APPROVED
WI: MADISON,01/10/2014 14:11:00,,1843.00,1339.00,381.00,253.00,127.00,171.00,101.00,38.00,APPROVED
WI: MADISON,01/10/2014 15:20:00,,1661.00,1042.00,296.00,163.00,94.00,118.00,73.00,29.00,APPROVED
WI: MADISON,01/10/2014 16:20:00,,1646.00,1085.00,312.00,184.00,101.00,132.00,79.00,32.00,APPROVED
WI: MADISON,01/10/2014 17:20:00,,1620.00,1068.00,317.00,187.00,102.00,131.00,80.00,32.00,APPROVED
WI: MADISON,01/10/2014 18:21:00,,1663.00,1104.00,326.00,190.00,105.00,136.00,82.00,31.00,APPROVED
WI: MADISON,01/10/2014 19:21:00,,1678.00,1128.00,336.00,197.00,108.00,140.00,83.00,33.00,APPROVED
WI: MADISON,01/10/2014 20:21:00,,1678.00,1147.00,346.00,202.00,108.00,144.00,88.00,32.00,APPROVED
WI: MADISON,01/10/2014 21:21:00,,1677.00,1147.00,344.00,205.00,107.00,146.00,85.00,32.00,APPROVED
WI: MADISON,01/10/2014 22:21:00,,2257.00,1650.00,469.00,276.00,141.00,198.00,110.00,39.00,APPROVED
WI: MADISON,01/10/2014 23:22:00,,2708.00,1991.00,567.00,340.00,169.00,233.00,126.00,45.00,APPROVED
WI: MADISON,01/11/2014 00:22:00,,2276.00,1629.00,485.00,286.00,144.00,199.00,111.00,40.00,APPROVED
WI: MADISON,01/11/2014 01:22:00,,2098.00,1485.00,438.00,254.00,133.00,180.00,102.00,37.00,APPROVED
WI: MADISON,01/11/2014 02:22:00,,2231.00,1601.00,472.00,272.00,143.00,198.00,111.00,40.00,APPROVED
WI: MADISON,01/11/2014 03:22:00,,2055.00,1466.00,434.00,251.00,130.00,182.00,103.00,36.00,APPROVED
WI: MADISON,01/11/2014 04:23:00,,1885.00,1318.00,401.00,229.00,122.00,169.00,97.00,35.00,APPROVED
WI: MADISON,01/11/2014 05:23:00,,1784.00,1252.00,379.00,225.00,118.00,160.00,93.00,35.00,APPROVED
WI: MADISON,01/11/2014 07:23:00,,1731.00,1209.00,367.00,218.00,112.00,157.00,91.00,35.00,APPROVED
WI: MADISON,01/11/2014 08:23:00,,1726.00,1214.00,369.00,217.00,118.00,157.00,93.00,35.00,APPROVED
WI: MADISON,01/11/2014 09:24:00,,1697.00,1188.00,356.00,211.00,113.00,154.00,89.00,34.00,APPROVED
WI: MADISON,01/11/2014 10:24:00,,1699.00,1161.00,347.00,205.00,111.00,145.00,87.00,34.00,APPROVED
WI: MADISON,01/11/2014 11:24:00,,1752.00,1217.00,364.00,216.00,116.00,154.00,91.00,35.00,APPROVED
WI: MADISON,01/11/2014 12:24:00,,1759.00,1242.00,369.00,227.00,117.00,157.00,94.00,35.00,APPROVED
WI: MADISON,01/11/2014 13:24:00,,1709.00,1180.00,352.00,215.00,116.00,148.00,89.00,33.00,APPROVED
WI: MADISON,01/11/2014 14:25:00,,1692.00,1157.00,342.00,205.00,109.00,144.00,85.00,31.00,APPROVED
WI: MADISON,01/11/2014 15:25:00,,1698.00,1174.00,341.00,205.00,112.00,145.00,87.00,34.00,APPROVED
WI: MADISON,01/11/2014 16:25:00,,1701.00,1170.00,345.00,205.00,111.00,145.00,89.00,33.00,APPROVED
WI: MADISON,01/11/2014 17:25:00,,1702.00,1179.00,352.00,210.00,111.00,152.00,88.00,33.00,APPROVED
WI: MADISON,01/11/2014 18:25:00,,1699.00,1177.00,352.00,210.00,112.00,146.00,88.00,34.00,APPROVED
WI: MADISON,01/11/2014 19:26:00,,1677.00,1142.00,345.00,202.00,109.00,144.00,85.00,32.00,APPROVED
WI: MADISON,01/11/2014 20:26:00,,1678.00,1151.00,342.00,202.00,110.00,143.00,85.00,32.00,APPROVED
WI: MADISON,01/11/2014 21:26:00,,1670.00,1138.00,335.00,201.00,108.00,141.00,85.00,33.00,APPROVED
WI: MADISON,01/11/2014 22:26:00,,1677.00,1139.00,334.00,196.00,107.00,138.00,85.00,33.00,APPROVED
WI: MADISON,01/11/2014 23:26:00,,1702.00,1162.00,338.00,204.00,109.00,146.00,83.00,32.00,APPROVED
WI: MADISON,01/12/2014 00:27:00,,1792.00,1235.00,363.00,221.00,112.00,154.00,91.00,35.00,APPROVED
WI: MADISON,01/12/2014 01:27:00,,1816.00,1285.00,375.00,236.00,121.00,161.00,94.00,35.00,APPROVED
WI: MADISON,01/12/2014 02:27:00,,1841.00,1321.00,382.00,240.00,124.00,164.00,98.00,37.00,APPROVED
WI: MADISON,01/12/2014 03:27:00,,1819.00,1296.00,375.00,241.00,121.00,163.00,98.00,36.00,APPROVED
WI: MADISON,01/12/2014 04:27:00,,1794.00,1252.00,364.00,230.00,117.00,157.00,95.00,34.00,APPROVED
WI: MADISON,01/12/2014 05:28:00,,1768.00,1235.00,356.00,226.00,115.00,153.00,92.00,35.00,APPROVED
WI: MADISON,01/12/2014 06:28:00,,1760.00,1227.00,356.00,223.00,113.00,156.00,92.00,33.00,APPROVED
WI: MADISON,01/12/2014 07:28:00,,1749.00,1209.00,350.00,219.00,113.00,149.00,89.00,34.00,APPROVED
WI: MADISON,01/12/2014 08:28:00,,1729.00,1174.00,339.00,210.00,112.00,144.00,88.00,34.00,APPROVED
WI: MADISON,01/12/2014 09:28:00,,1718.00,1148.00,327.00,208.00,108.00,142.00,84.00,33.00,APPROVED
WI: MADISON,01/12/2014 10:29:00,,1686.00,1131.00,324.00,198.00,106.00,138.00,82.00,32.00,APPROVED
WI: MADISON,01/12/2014 11:29:00,,1681.00,1128.00,324.00,198.00,108.00,136.00,84.00,32.00,APPROVED
WI: MADISON,01/12/2014 12:29:00,,1658.00,1101.00,322.00,195.00,104.00,135.00,82.00,32.00,APPROVED
WI: MADISON,01/12/2014 13:29:00,,1667.00,1093.00,320.00,190.00,102.00,132.00,82.00,33.00,APPROVED
WI: MADISON,01/12/2014 14:29:00,,1678.00,1121.00,318.00,192.00,105.00,135.00,84.00,31.00,APPROVED
WI: MADISON,01/12/2014 15:30:00,,1668.00,1113.00,322.00,195.00,105.00,134.00,82.00,33.00,APPROVED
WI: MADISON,01/12/2014 16:30:00,,1609.00,1060.00,310.00,179.00,97.00,129.00,78.00,32.00,APPROVED
WI: MADISON,01/12/2014 17:30:00,,1580.00,1000.00,298.00,165.00,96.00,117.00,76.00,29.00,APPROVED
WI: MADISON,01/12/2014 18:30:00,,1534.00,966.00,291.00,155.00,93.00,116.00,72.00,29.00,APPROVED
WI: MADISON,01/12/2014 19:30:00,,1494.00,937.00,283.00,149.00,89.00,112.00,70.00,28.00,APPROVED
WI: MADISON,01/12/2014 20:31:00,,1471.00,908.00,277.00,144.00,88.00,111.00,69.00,28.00,APPROVED
WI: MADISON,01/12/2014 21:31:00,,1464.00,910.00,279.00,145.00,90.00,109.00,67.00,28.00,APPROVED
WI: MADISON,01/12/2014 22:31:00,,1479.00,915.00,275.00,144.00,88.00,110.00,69.00,28.00,APPROVED
WI: MADISON,01/12/2014 23:31:00,,1485.00,917.00,274.00,143.00,87.00,109.00,69.00,29.00,APPROVED
WI: MADISON,01/13/2014 00:31:00,,1490.00,909.00,272.00,141.00,88.00,106.00,68.00,29.00,APPROVED
WI: MADISON,01/13/2014 01:32:00,,1487.00,903.00,270.00,138.00,88.00,107.00,67.00,29.00,APPROVED
WI: MADISON,01/13/2014 02:32:00,,1493.00,909.00,272.00,142.00,86.00,104.00,68.00,29.00,APPROVED
WI: MADISON,01/13/2014 03:32:00,,1506.00,914.00,268.00,143.00,86.00,105.00,66.00,28.00,APPROVED
WI: MADISON,01/13/2014 04:32:00,,1512.00,909.00,271.00,140.00,87.00,105.00,69.00,29.00,APPROVED
WI: MADISON,01/13/2014 05:32:00,,1507.00,914.00,273.00,137.00,88.00,107.00,68.00,28.00,APPROVED
WI: MADISON,01/13/2014 06:33:00,,1514.00,923.00,272.00,141.00,89.00,106.00,67.00,28.00,APPROVED
WI: MADISON,01/13/2014 07:33:00,,1519.00,917.00,270.00,138.00,89.00,107.00,68.00,27.00,APPROVED
WI: MADISON,01/13/2014 08:33:00,,1515.00,925.00,275.00,145.00,88.00,105.00,68.00,28.00,APPROVED
WI: MADISON,01/13/2014 09:33:00,,1536.00,928.00,279.00,143.00,91.00,107.00,69.00,29.00,APPROVED
WI: MADISON,01/13/2014 10:33:00,,1538.00,952.00,278.00,145.00,91.00,113.00,68.00,29.00,APPROVED
WI: MADISON,01/13/2014 11:34:00,,1551.00,961.00,279.00,152.00,94.00,113.00,71.00,29.00,APPROVED
WI: MADISON,01/13/2014 12:34:00,,1584.00,977.00,292.00,156.00,90.00,116.00,71.00,29.00,APPROVED
WI: MADISON,01/13/2014 13:34:00,,1584.00,1016.00,297.00,159.00,97.00,121.00,74.00,30.00,APPROVED
WI: MADISON,01/13/2014 14:34:00,,1612.00,1029.00,309.00,166.00,98.00,122.00,75.00,30.00,APPROVED
WI: MADISON,01/13/2014 15:34:00,,1614.00,1044.00,314.00,170.00,98.00,126.00,76.00,30.00,APPROVED
WI: MADISON,01/13/2014 16:35:00,,1630.00,1059.00,320.00,168.00,99.00,128.00,80.00,31.00,APPROVED
WI: MADISON,01/13/2014 17:14:00,,1627.00,1061.00,321.00,169.00,99.00,131.00,76.00,31.00,APPROVED
WI: MADISON,01/13/2014 18:32:00,,1608.00,1014.00,305.00,157.00,98.00,125.00,74.00,31.00,APPROVED
WI: MADISON,01/13/2014 19:32:00,,1598.00,1023.00,310.00,162.00,97.00,126.00,73.00,29.00,APPROVED
WI: MADISON,01/13/2014 20:32:00,,1552.00,1005.00,304.00,166.00,95.00,124.00,76.00,32.00,APPROVED
WI: MADISON,01/13/2014 21:32:00,,1562.00,1019.00,308.00,165.00,98.00,123.00,75.00,30.00,APPROVED
WI: MADISON,01/13/2014 22:32:00,,1582.00,1020.00,307.00,169.00,100.00,123.00,78.00,31.00,APPROVED
WI: MADISON,01/13/2014 23:33:00,,1600.00,1026.00,306.00,168.00,101.00,123.00,77.00,30.00,APPROVED
WI: MADISON,01/14/2014 00:33:00,,1591.00,1011.00,299.00,161.00,97.00,120.00,75.00,31.00,APPROVED
WI: MADISON,01/14/2014 01:33:00,,1576.00,991.00,297.00,159.00,95.00,118.00,73.00,30.00,APPROVED
WI: MADISON,01/14/2014 02:33:00,,1601.00,1009.00,296.00,162.00,95.00,115.00,73.00,29.00,APPROVED
WI: MADISON,01/14/2014 03:33:00,,1650.00,1041.00,302.00,170.00,99.00,121.00,77.00,31.00,APPROVED
WI: MADISON,01/14/2014 04:34:00,,1674.00,1080.00,307.00,176.00,101.00,125.00,79.00,30.00,APPROVED
WI: MADISON,01/14/2014 05:34:00,,1693.00,1106.00,315.00,186.00,101.00,130.00,82.00,33.00,APPROVED
WI: MADISON,01/14/2014 06:34:00,,1700.00,1112.00,322.00,191.00,103.00,133.00,83.00,33.00,APPROVED
WI: MADISON,01/14/2014 07:34:00,,1701.00,1129.00,330.00,192.00,106.00,136.00,83.00,30.00,APPROVED
WI: MADISON,01/14/2014 08:34:00,,1719.00,1148.00,332.00,195.00,110.00,139.00,83.00,33.00,APPROVED
WI: MADISON,01/14/2014 09:35:00,,1743.00,1163.00,340.00,207.00,111.00,140.00,87.00,33.00,APPROVED
WI: MADISON,01/14/2014 10:35:00,,1744.00,1184.00,344.00,207.00,112.00,144.00,90.00,33.00,APPROVED
WI: MADISON,01/14/2014 11:35:00,,1746.00,1174.00,336.00,208.00,111.00,141.00,91.00,34.00,APPROVED
WI: MADISON,01/14/2014 12:35:00,,1726.00,1150.00,334.00,202.00,108.00,140.00,85.00,33.00,APPROVED
WI: MADISON,01/14/2014 13:35:00,,1729.00,1155.00,335.00,200.00,107.00,138.00,84.00,32.00,APPROVED
WI: MADISON,01/14/2014 14:36:00,,1942.00,1355.00,387.00,229.00,122.00,161.00,95.00,34.00,APPROVED
WI: MADISON,01/14/2014 15:36:00,,1956.00,1356.00,398.00,236.00,121.00,161.00,96.00,36.00,APPROVED
WI: MADISON,01/14/2014 16:36:00,,1816.00,1232.00,359.00,209.00,113.00,150.00,87.00,32.00,APPROVED
WI: MADISON,01/14/2014 17:36:00,,1748.00,1173.00,343.00,201.00,111.00,143.00,86.00,33.00,APPROVED
WI: MADISON,01/14/2014 18:36:00,,1795.00,1226.00,355.00,210.00,112.00,148.00,90.00,35.00,APPROVED
WI: MADISON,01/14/2014 19:07:00,,1814.00,1232.00,360.00,217.00,117.00,154.00,86.00,34.00,APPROVED
WI: MADISON,01/14/2014 20:14:00,,1738.00,1082.00,308.00,168.00,99.00,122.00,79.00,31.00,APPROVED
WI: MADISON,01/14/2014 21:14:00,,1858.00,1257.00,356.00,217.00,113.00,148.00,91.00,33.00,APPROVED
WI: MADISON,01/14/2014 22:14:00,,1899.00,1291.00,368.00,225.00,116.00,154.00,93.00,35.00,APPROVED
WI: MADISON,01/14/2014 23:14:00,,1849.00,1235.00,348.00,212.00,113.00,146.00,85.00,33.00,APPROVED
WI: MADISON,01/15/2014 00:15:00,,1838.00,1191.00,342.00,202.00,108.00,138.00,86.00,34.00,APPROVED
WI: MADISON,01/15/2014 01:15:00,,1778.00,1145.00,324.00,187.00,104.00,128.00,82.00,33.00,APPROVED
WI: MADISON,01/15/2014 02:15:00,,1722.00,1078.00,302.00,175.00,98.00,122.00,78.00,31.00,APPROVED
WI: MADISON,01/15/2014 03:15:00,,1759.00,1102.00,309.00,181.00,101.00,124.00,76.00,31.00,APPROVED
WI: MADISON,01/15/2014 04:15:00,,1733.00,1075.00,301.00,175.00,97.00,122.00,75.00,31.00,APPROVED
WI: MADISON,01/15/2014 05:16:00,,1647.00,1005.00,282.00,159.00,92.00,112.00,71.00,29.00,APPROVED
WI: MADISON,01/15/2014 06:16:00,,1596.00,954.00,268.00,150.00,89.00,104.00,69.00,27.00,APPROVED
WI: MADISON,01/15/2014 07:16:00,,1570.00,925.00,261.00,143.00,86.00,102.00,69.00,29.00,APPROVED
WI: MADISON,01/15/2014 08:16:00,,1551.00,921.00,260.00,137.00,88.00,100.00,67.00,28.00,APPROVED
WI: MADISON,01/15/2014 09:16:00,,1552.00,922.00,260.00,139.00,81.00,99.00,66.00,29.00,APPROVED
WI: MADISON,01/15/2014 10:17:00,,1535.00,907.00,260.00,139.00,85.00,96.00,69.00,28.00,APPROVED
WI: MADISON,01/15/2014 11:17:00,,1548.00,916.00,257.00,137.00,85.00,100.00,64.00,27.00,APPROVED
WI: MADISON,01/15/2014 12:17:00,,1562.00,927.00,262.00,144.00,85.00,99.00,67.00,28.00,APPROVED
WI: MADISON,01/15/2014 13:17:00,,1570.00,928.00,258.00,143.00,88.00,99.00,68.00,29.00,APPROVED
WI: MADISON,01/15/2014 14:17:00,,1549.00,915.00,260.00,142.00,87.00,102.00,67.00,28.00,APPROVED
WI: MADISON,01/15/2014 15:18:00,,1538.00,925.00,263.00,142.00,86.00,102.00,67.00,28.00,APPROVED
WI: MADISON,01/15/2014 16:18:00,,1540.00,910.00,256.00,140.00,85.00,99.00,68.00,26.00,APPROVED
WI: MADISON,01/15/2014 17:18:00,,1538.00,920.00,263.00,142.00,89.00,100.00,67.00,27.00,APPROVED
WI: MADISON,01/15/2014 18:18:00,,1551.00,923.00,265.00,140.00,87.00,101.00,68.00,27.00,APPROVED
WI: MADISON,01/15/2014 19:18:00,,1544.00,926.00,266.00,144.00,85.00,103.00,70.00,28.00,APPROVED
WI: MADISON,01/15/2014 20:19:00,,1560.00,935.00,267.00,147.00,88.00,104.00,71.00,29.00,APPROVED
WI: MADISON,01/15/2014 21:19:00,,1582.00,955.00,273.00,148.00,87.00,108.00,70.00,29.00,APPROVED
WI: MADISON,01/15/2014 22:19:00,,1610.00,979.00,276.00,154.00,90.00,109.00,70.00,29.00,APPROVED
WI: MADISON,01/15/2014 23:19:00,,1642.00,1005.00,277.00,158.00,93.00,108.00,74.00,29.00,APPROVED
WI: MADISON,01/16/2014 00:19:00,,1664.00,1028.00,282.00,160.00,93.00,113.00,73.00,29.00,APPROVED
WI: MADISON,01/16/2014 01:20:00,,1676.00,1037.00,283.00,165.00,95.00,117.00,74.00,30.00,APPROVED
WI: MADISON,01/16/2014 02:20:00,,1682.00,1036.00,284.00,164.00,96.00,114.00,73.00,31.00,APPROVED
WI: MADISON,01/16/2014 03:20:00,,1675.00,1032.00,292.00,165.00,94.00,115.00,74.00,31.00,APPROVED
WI: MADISON,01/16/2014 04:20:00,,1688.00,1047.00,291.00,167.00,95.00,117.00,73.00,31.00,APPROVED
WI: MADISON,01/16/2014 05:20:00,,1690.00,1056.00,294.00,174.00,97.00,118.00,76.00,29.00,APPROVED
WI: MADISON,01/16/2014 06:21:00,,1714.00,1091.00,303.00,181.00,99.00,123.00,79.00,30.00,APPROVED
WI: MADISON,01/16/2014 07:21:00,,1700.00,1074.00,304.00,181.00,99.00,121.00,78.00,31.00,APPROVED
WI: MADISON,01/16/2014 08:21:00,,1692.00,1069.00,301.00,175.00,101.00,123.00,77.00,31.00,APPROVED
WI: MADISON,01/16/2014 09:21:00,,1676.00,1054.00,298.00,174.00,98.00,120.00,76.00,31.00,APPROVED
WI: MADISON,01/16/2014 10:21:00,,1666.00,1048.00,298.00,173.00,98.00,120.00,76.00,30.00,APPROVED
WI: MADISON,01/16/2014 11:22:00,,1664.00,1036.00,297.00,171.00,95.00,118.00,76.00,30.00,APPROVED
WI: MADISON,01/16/2014 12:22:00,,1666.00,1038.00,293.00,168.00,96.00,117.00,74.00,31.00,APPROVED
WI: MADISON,01/16/2014 13:22:00,,1665.00,1023.00,294.00,167.00,95.00,117.00,77.00,28.00,APPROVED
WI: MADISON,01/16/2014 14:22:00,,1644.00,1019.00,290.00,166.00,96.00,118.00,74.00,30.00,APPROVED
WI: MADISON,01/16/2014 15:23:00,,1641.00,1033.00,293.00,166.00,93.00,116.00,72.00,29.00,APPROVED
WI: MADISON,01/16/2014 16:23:00,,1706.00,1073.00,304.00,171.00,100.00,124.00,76.00,31.00,APPROVED
WI: MADISON,01/16/2014 17:23:00,,1719.00,1090.00,317.00,179.00,100.00,125.00,78.00,32.00,APPROVED
WI: MADISON,01/16/2014 18:23:00,,1709.00,1105.00,318.00,180.00,102.00,128.00,79.00,32.00,APPROVED
WI: MADISON,01/16/2014 19:23:00,,1700.00,1109.00,317.00,183.00,102.00,130.00,80.00,31.00,APPROVED
WI: MADISON,01/16/2014 20:24:00,,1677.00,1080.00,313.00,180.00,100.00,128.00,78.00,31.00,APPROVED
WI: MADISON,01/16/2014 21:24:00,,1779.00,1178.00,350.00,196.00,108.00,140.00,83.00,32.00,APPROVED
WI: MADISON,01/16/2014 22:24:00,,2074.00,1417.00,414.00,243.00,128.00,171.00,97.00,36.00,APPROVED
WI: MADISON,01/16/2014 23:24:00,,1910.00,1288.00,375.00,217.00,114.00,154.00,88.00,34.00,APPROVED
WI: MADISON,01/17/2014 00:24:00,,1682.00,1065.00,310.00,175.00,99.00,123.00,77.00,31.00,APPROVED
WI: MADISON,01/17/2014 01:25:00,,1629.00,1003.00,286.00,161.00,93.00,114.00,72.00,29.00,APPROVED